[[{"header":{"parameterUnit":"m.s-1","parameterCategory":1,"la1":30.2991,"la2":30.254,"lo1":-89.0895,"lo2":-89.0444,"dy":0.0017,"dx":0.0017,"nx":28,"ny":28,"refTime":"2025-11-30T03:00:00:Z","depth":0,"parameterNumber":2,"parameterNumberName":"U-component_of_WINDS"},"data":[0,0,0,0,0,0,0,0,0,0,0,0,0,0,0,0,0,0,0,0,0,0,0,0,0,0,0,0,0,0,0,0,0,0,0,0,0,0,0,0,0,0,0,0,0,0,0,0,0,0,0,0,0,0,0,0,0,0,-5.3745,-5.3747,0,-5.3956,-5.3959,-5.3961,-5.4016,-5.4014,-5.4013,-5.4012,-5.4226,-5.4233,-5.424,0,0,0,0,0,0,0,0,0,0,0,0,0,-5.3386,-5.3393,-5.3745,-5.3747,-5.375,-5.3956,-5.3959,-5.3962,-5.4016,-5.4014,-5.4013,-5.4011,-5.4224,-5.4232,-5.4241,0,0,0,0,0,0,0,0,0,0,0,0,0,-5.3564,-5.3395,-5.3744,-5.3802,-5.3809,-5.3955,-5.3959,-5.3963,-5.4016,-5.4014,-5.4012,-5.4011,-5.4221,-5.4231,-5.4242,-5.4345,0,0,-5.4273,-5.4278,0,0,0,0,0,0,0,0,-5.3554,-5.3577,-5.3791,-5.3798,-5.3807,-5.3958,-5.3911,-5.4091,-5.4017,-5.3938,-5.4012,-5.401,-5.4138,-5.4156,-5.4199,-5.4355,-5.4364,-5.4274,-5.4281,-5.4285,-5.4288,0,0,0,0,0,0,0,-5.3542,-5.3569,-5.3828,-5.3794,-5.3804,-5.3817,-5.384,-5.3946,-5.4046,-5.3944,-5.3949,-5.3973,-5.4142,-5.4189,-5.4205,-5.4367,-5.4274,-5.4283,-5.429,-5.4294,-5.4618,-5.462,0,0,0,0,0,0,-5.352,-5.3558,-5.3822,-5.3835,-5.3673,-5.3825,-5.3851,-5.3911,-5.4045,-5.4064,-5.3975,-5.3975,-5.4173,-5.4193,-5.4213,-5.4341,-5.4285,-5.4295,-5.4301,-5.4616,-5.4619,-5.4621,0,0,0,0,0,0,-5.3512,-5.3543,-5.3813,-5.3698,-5.3733,-5.3833,-5.3901,-5.3916,-5.3963,-5.4068,-5.4086,-5.4004,-5.4172,-5.4198,-5.4312,-5.435,-5.43,-5.4309,-5.4613,-5.4617,-5.462,-5.46,0,0,0,0,0,0,-5.3501,-5.354,-5.358,-5.3698,-5.3739,-5.3909,-5.3903,-5.3922,-5.3981,-5.3984,-5.4101,-5.4118,-5.4172,-5.4296,-5.4322,-5.4363,-5.4317,-5.461,-5.4615,-5.4619,-5.4598,-5.4603,-5.4607,0,0,0,0,0,-5.3488,-5.3566,-5.3582,-5.3613,-5.3792,-5.3911,-5.3934,-5.3996,-5.3984,-5.4025,-5.4093,-5.4114,-5.4342,-5.4307,-5.4337,-5.4382,-5.4608,-5.4613,-5.4618,-5.4596,-5.4602,-5.4607,0,0,0,0,0,0,-5.3448,-5.3582,-5.3601,-5.3719,-5.3804,-5.392,-5.3974,-5.4,-5.4088,-5.4087,-5.4159,-5.4185,-5.4293,-5.435,-5.4308,-5.4489,-5.4475,-5.4486,-5.4447,-5.4454,-5.4458,-5.4441,-5.4326,0,0,0,0,0,-5.3453,-5.3539,-5.3652,-5.3745,-5.3786,-5.3873,-5.3927,-5.3967,-5.4057,-5.4092,-5.4168,-5.4254,-5.4345,-5.4403,-5.4492,-5.4607,-5.4633,-5.4653,-5.4657,-5.466,-5.4669,-5.4733,-5.4742,-5.4639,-5.4639,-5.4639,0,0,-5.3464,-5.3548,-5.3597,-5.3739,-5.3809,-5.3896,-5.3902,-5.3994,-5.4059,-5.4106,-5.4218,-5.4277,-5.4377,-5.4492,-5.4546,-5.4542,-5.4703,-5.4667,-5.4669,-5.4676,-5.4739,-5.4749,-5.4757,-5.4642,-5.4642,-5.4641,0,0,-5.3527,-5.36,-5.3685,-5.3756,-5.3862,-5.3919,-5.394,-5.4053,-5.4094,-5.4208,-5.4245,-5.4324,-5.4479,-5.4549,-5.4604,-5.4696,-5.4719,-5.4723,-5.4745,-5.4807,-5.4815,-5.4823,-5.4854,-5.4864,-5.4732,-5.4732,-5.4732,0,-5.3527,-5.366,-5.3726,-5.3816,-5.3877,-5.3925,-5.4011,-5.4076,-5.4206,-5.4246,-5.4241,-5.4436,-5.4508,-5.4639,-5.4661,-5.4705,-5.473,-5.4709,-5.4809,-5.4817,-5.4825,-5.4856,-5.4867,-5.4732,-5.4732,-5.4732,-5.4732,0,-5.3653,-5.3745,-5.3801,-5.3926,-5.3993,-5.4081,-5.416,-5.422,-5.4255,-5.4313,-5.4428,-5.4515,-5.4623,-5.4658,-5.4692,-5.4794,-5.4788,-5.4795,-5.4782,-5.4834,-5.4863,-5.4876,-5.4731,-5.4731,-5.4731,-5.4732,0,0,-5.3695,-5.3856,-5.3875,-5.3932,-5.4054,-5.4125,-5.4216,-5.4322,-5.4372,-5.446,-5.4537,-5.4668,-5.4675,-5.4738,-5.4782,-5.4836,-5.4902,-5.4837,-5.484,-5.4844,-5.5017,-5.5009,-5.5022,-5.4919,-5.4921,-5.4923,-5.5008,0,-5.3772,-5.3934,-5.3997,-5.413,-5.4215,-5.4263,-5.4342,-5.4424,-5.4481,-5.4561,-5.4624,-5.4715,-5.4719,-5.4757,-5.4814,-5.4881,-5.4937,-5.4877,-5.4989,-5.4992,-5.4959,-5.5038,-5.503,-5.5106,-5.502,-5.5023,-5.5024,0,-5.3883,-5.3973,-5.4113,-5.4225,-5.4263,-5.4332,-5.4435,-5.4511,-5.4606,-5.4644,-5.4715,-5.4756,-5.4851,-5.4835,-5.4967,-5.4925,-5.4975,-5.5015,-5.502,-5.5031,-5.5009,-5.5048,-5.5132,-5.5142,-5.5043,-5.5042,-5.504,0,-5.3896,-5.4053,-5.4157,-5.4205,-5.4338,-5.4385,-5.4443,-5.4536,-5.4596,-5.4686,-5.4725,-5.4825,-5.4879,-5.4955,-5.5021,-5.5003,-5.5147,-5.5136,-5.518,-5.5178,-5.5205,-5.5202,-5.5295,-5.5242,-5.5241,-5.5241,-5.5241,0,-5.3974,-5.4058,-5.4165,-5.4229,-5.4325,-5.4397,-5.4489,-5.455,-5.4632,-5.4709,-5.4757,-5.4827,-5.4912,-5.4993,-5.5046,-5.5146,-5.5171,-5.5203,-5.5216,-5.5198,-5.5193,-5.5229,-5.5225,-5.5244,-5.5244,-5.5243,-5.5243,0,-5.4004,-5.408,-5.4196,-5.4313,-5.4345,-5.441,-5.4509,-5.4573,-5.4633,-5.4729,-5.4756,-5.4849,-5.4948,-5.5022,-5.5149,-5.5185,-5.5291,-5.5306,-5.5259,-5.5265,-5.5304,-5.5298,-5.5421,-5.5441,-5.5375,-5.5376,-5.5376,0,-5.4047,-5.4113,-5.4237,-5.4292,-5.4349,-5.4437,-5.4499,-5.4573,-5.4635,-5.4749,-5.4798,-5.49,-5.4985,-5.514,-5.5219,-5.5317,-5.5333,-5.5369,-5.5347,-5.5327,-5.5331,-5.5325,-5.5331,-5.5371,-5.5371,-5.5372,-5.5372,0,-5.4116,-5.415,-5.4237,-5.4338,-5.4411,-5.4493,-5.4577,-5.4619,-5.4708,-5.4775,-5.4876,-5.4943,-5.5073,-5.5173,-5.5279,-5.5338,-5.5369,-5.5379,-5.5394,-5.5374,-5.5344,-5.5359,-5.5264,-5.5375,-5.5375,-5.5374,-5.5374,-5.5374,-5.4153,-5.4213,-5.431,-5.4406,-5.4477,-5.4554,-5.4619,-5.4688,-5.4774,-5.4886,-5.4925,-5.5029,-5.5123,-5.5269,-5.5329,-5.5411,-5.5411,-5.5433,-5.5439,-5.5442,-5.544,-5.5333,-5.5431,-5.5431,-5.5431,-5.5431,-5.5431,0,-5.4222,-5.4287,-5.4375,-5.449,-5.4565,-5.459,-5.4684,-5.4745,-5.4836,-5.4922,-5.5005,-5.5121,-5.5219,-5.5307,-5.5408,-5.5457,-5.5474,-5.5481,-5.5477,-5.549,-5.5435,-5.5411,-5.5466,-5.5466,-5.5466,-5.5466,-5.5466,-5.5466,-5.4267,-5.437,-5.4416,-5.4555,-5.462,-5.4722,-5.4774,-5.4845,-5.4914,-5.5041,-5.5123,-5.518,-5.5266,-5.5375,-5.5465,-5.5489,-5.5523,-5.5526,-5.5552,-5.5498,-5.5494,-5.5489,-5.5467,-5.5533,-5.5533,-5.5601,-5.5601,-5.5602]},{"header":{"parameterUnit":"m.s-1","parameterCategory":1,"la1":30.2991,"la2":30.254,"lo1":-89.0895,"lo2":-89.0444,"dy":0.0017,"dx":0.0017,"nx":28,"ny":28,"refTime":"2025-11-30T03:00:00:Z","depth":0,"parameterNumber":3,"parameterNumberName":"V-component_of_WINDS"},"data":[0,0,0,0,0,0,0,0,0,0,0,0,0,0,0,0,0,0,0,0,0,0,0,0,0,0,0,0,0,0,0,0,0,0,0,0,0,0,0,0,0,0,0,0,0,0,0,0,0,0,0,0,0,0,0,0,0,0,8.0973,8.0975,0,8.1158,8.116,8.1162,8.1198,8.1197,8.1195,8.1194,8.1374,8.138,8.1386,0,0,0,0,0,0,0,0,0,0,0,0,0,8.0643,8.0649,8.0973,8.0975,8.0978,8.1158,8.116,8.1163,8.1199,8.1197,8.1195,8.1193,8.1372,8.1379,8.1386,0,0,0,0,0,0,0,0,0,0,0,0,0,8.0802,8.065,8.0972,8.1017,8.1023,8.1157,8.116,8.1163,8.1199,8.1197,8.1195,8.1193,8.1369,8.1378,8.1387,8.1487,0,0,8.1415,8.1419,0,0,0,0,0,0,0,0,8.0793,8.0814,8.1008,8.1015,8.1021,8.1153,8.111,8.1271,8.1199,8.1132,8.1194,8.1192,8.1301,8.1316,8.1355,8.1495,8.1503,8.1416,8.1422,8.1426,8.1428,0,0,0,0,0,0,0,8.0782,8.0807,8.1046,8.1011,8.1019,8.1026,8.1046,8.1141,8.1226,8.1138,8.1141,8.1163,8.1304,8.1346,8.136,8.1506,8.1416,8.1424,8.143,8.1433,8.1738,8.174,0,0,0,0,0,0,8.0764,8.0797,8.104,8.1051,8.09,8.1033,8.1056,8.1113,8.1225,8.1241,8.1164,8.1164,8.1332,8.1349,8.1366,8.1491,8.1426,8.1434,8.144,8.1735,8.1738,8.1741,0,0,0,0,0,0,8.0757,8.0786,8.1032,8.0925,8.0957,8.1041,8.1105,8.1118,8.1159,8.1246,8.126,8.1192,8.1331,8.1353,8.1458,8.1497,8.1438,8.1447,8.1732,8.1736,8.174,8.174,0,0,0,0,0,0,8.0748,8.0783,8.0823,8.0926,8.0963,8.1123,8.1107,8.1123,8.1176,8.1177,8.1275,8.1289,8.1331,8.1444,8.1467,8.1509,8.1454,8.1729,8.1734,8.1738,8.1737,8.1744,8.1749,0,0,0,0,0,8.0736,8.0813,8.0825,8.0854,8.1016,8.1125,8.1146,8.1195,8.1179,8.122,8.1275,8.1286,8.149,8.1454,8.148,8.1526,8.1726,8.1732,8.1738,8.1734,8.1742,8.1749,0,0,0,0,0,0,8.0709,8.0828,8.0842,8.0956,8.1031,8.1131,8.1183,8.1202,8.128,8.1277,8.1332,8.1353,8.1455,8.1501,8.1459,8.1629,8.1607,8.1618,8.1595,8.1603,8.1609,8.1596,8.1462,0,0,0,0,0,8.0717,8.0799,8.0897,8.0988,8.1026,8.1098,8.1147,8.118,8.1258,8.1288,8.1352,8.1425,8.1505,8.1557,8.1636,8.1744,8.1766,8.1789,8.1795,8.18,8.1808,8.187,8.1881,8.176,8.176,8.176,0,0,8.0733,8.0808,8.0856,8.0985,8.1047,8.1128,8.1124,8.121,8.1271,8.13,8.1404,8.1453,8.1538,8.1645,8.1696,8.1687,8.1847,8.1807,8.181,8.1816,8.1877,8.1888,8.1898,8.1764,8.1763,8.1763,0,0,8.0804,8.087,8.0953,8.1017,8.1112,8.116,8.118,8.1279,8.1314,8.142,8.1444,8.1515,8.1653,8.1714,8.1762,8.1859,8.1872,8.1883,8.1915,8.1974,8.1983,8.1992,8.2027,8.2039,8.1892,8.1892,8.1892,0,8.0811,8.0938,8.0993,8.108,8.1135,8.1171,8.1255,8.1312,8.1426,8.1463,8.1453,8.1628,8.1688,8.181,8.1834,8.1872,8.1896,8.1871,8.1978,8.1988,8.1996,8.203,8.2043,8.1892,8.1892,8.1892,8.1892,0,8.0942,8.1029,8.1085,8.12,8.1262,8.1346,8.1412,8.1468,8.1495,8.1544,8.1651,8.1724,8.1819,8.1851,8.1876,8.1977,8.1969,8.1968,8.1947,8.2008,8.204,8.2053,8.1893,8.1893,8.1893,8.1893,0,0,8.0999,8.1146,8.1165,8.1218,8.1327,8.1394,8.148,8.1577,8.1624,8.1702,8.1774,8.1892,8.1892,8.1947,8.198,8.2032,8.2105,8.2025,8.2028,8.2037,8.2221,8.2221,8.2235,8.2115,8.2118,8.212,8.2214,0,8.1083,8.1241,8.1295,8.1425,8.1506,8.1542,8.1617,8.169,8.1739,8.1813,8.1865,8.1947,8.1942,8.1976,8.2029,8.2085,8.2142,8.2079,8.2181,8.2184,8.2158,8.2252,8.2252,8.2336,8.2227,8.2229,8.2231,0,8.1202,8.1286,8.1425,8.1526,8.1562,8.1629,8.1723,8.1794,8.1878,8.1909,8.1973,8.2003,8.2092,8.2067,8.219,8.2146,8.2191,8.2225,8.2229,8.224,8.221,8.2264,8.2365,8.2377,8.2251,8.2249,8.2248,0,8.1229,8.1378,8.1481,8.1525,8.1645,8.1691,8.1742,8.1825,8.188,8.1961,8.1998,8.2087,8.2135,8.2202,8.2255,8.2232,8.2373,8.2353,8.24,8.2399,8.2427,8.2424,8.2536,8.2457,8.2457,8.2457,8.2457,0,8.1317,8.1401,8.1495,8.1558,8.1653,8.1713,8.1804,8.1857,8.1931,8.2003,8.2039,8.2105,8.2171,8.2246,8.2287,8.2383,8.2404,8.2431,8.2441,8.2428,8.2424,8.2457,8.2452,8.246,8.246,8.2459,8.2458,0,8.1364,8.143,8.1545,8.1651,8.1679,8.1744,8.1834,8.1895,8.1946,8.2038,8.2062,8.2141,8.2232,8.2292,8.2405,8.2433,8.2538,8.2546,8.251,8.2515,8.2559,8.2554,8.2695,8.2716,8.2624,8.2624,8.2625,0,8.1415,8.1481,8.1595,8.1648,8.1701,8.1785,8.1844,8.1905,8.1963,8.2066,8.2115,8.2208,8.2286,8.2429,8.2494,8.2582,8.2592,8.2636,8.2605,8.2591,8.2593,8.2588,8.2595,8.264,8.2641,8.2641,8.2642,0,8.1499,8.153,8.1614,8.171,8.1779,8.1857,8.1934,8.1975,8.2049,8.2113,8.2208,8.2269,8.2388,8.2479,8.2574,8.2624,8.2645,8.2651,8.2667,8.2653,8.263,8.2643,8.2523,8.2647,8.2647,8.2646,8.2646,8.2646,8.155,8.1611,8.1701,8.1794,8.186,8.1932,8.1996,8.2057,8.2138,8.2242,8.2273,8.2371,8.2454,8.2584,8.2636,8.2713,8.2708,8.273,8.2736,8.274,8.2741,8.2619,8.273,8.273,8.273,8.273,8.273,0,8.1636,8.1697,8.1782,8.1891,8.1964,8.1981,8.2068,8.2127,8.2215,8.2292,8.237,8.2479,8.2569,8.2643,8.2736,8.2782,8.2794,8.2805,8.2801,8.2812,8.274,8.2717,8.2794,8.2794,8.2794,8.2794,8.2794,8.2793,8.1689,8.1793,8.1835,8.1972,8.2031,8.2131,8.218,8.2246,8.2309,8.243,8.2507,8.2556,8.2632,8.2731,8.2813,8.2833,8.2865,8.2873,8.2894,8.2824,8.2817,8.281,8.2789,8.288,8.288,8.296,8.2961,8.2961]}]]